GFSFLT2_prec_cthk_234.txt.gz
RH
18 19 21 23 25 27 29 29 30 31 32 32 32 32 33 32 32 32 32 32 32 33 34 34 35 36 37 37 38 39 42 51
19 19 21 24 27 29 31 32 33 34 35 36 36 36 36 36 34 32 32 33 33 33 35 37 39 40 40 41 40 41 41 52
20 21 22 25 28 31 32 34 35 37 38 39 39 39 39 38 36 36 35 34 34 35 37 40 42 43 44 43 42 41 41 46
19 23 24 27 30 31 33 35 36 38 39 40 40 40 45 44 42 39 36 35 35 38 41 42 43 43 42 46 49 50 57 63
25 23 26 27 31 33 34 35 36 39 40 40 41 44 52 51 49 41 38 36 39 44 48 46 44 43 45 43 42 46 46 50
31 27 27 27 30 33 35 37 39 39 40 44 45 48 53 53 47 44 45 47 50 49 47 48 48 47 45 46 47 48 49 52
29 26 26 28 30 33 39 39 41 41 42 45 46 47 50 51 49 50 50 55 57 55 52 49 47 47 48 49 51 52 52 55
31 26 24 27 31 35 37 40 41 45 44 44 47 48 49 51 50 54 56 62 61 59 50 48 46 47 48 50 51 50 48 53
30 28 25 26 28 35 36 39 42 43 43 46 45 47 50 53 51 60 62 63 63 54 50 45 45 49 51 50 54 49 55 48
32 30 27 29 30 32 35 37 40 43 44 43 45 47 48 48 55 62 64 65 62 48 45 46 45 46 46 50 54 50 60 49
32 31 30 31 32 34 34 36 38 38 39 42 42 45 46 50 62 63 62 63 51 46 45 46 43 46 46 50 43 43 41 44
35 34 34 31 32 34 38 37 38 40 41 43 45 47 50 55 58 60 63 60 52 57 52 48 47 49 50 47 43 42 42 51
39 36 36 34 31 34 36 38 42 42 42 43 46 49 54 56 60 65 71 59 55 50 48 46 43 45 48 44 42 41 45 43
42 42 38 35 35 35 41 43 44 45 46 48 50 54 56 61 70 76 70 60 49 43 44 43 46 48 46 46 45 42 44 52
42 44 41 37 37 40 43 44 49 50 48 49 52 57 64 70 81 81 64 51 47 47 47 48 49 48 50 51 49 46 46 52
38 43 45 40 40 42 43 45 48 48 52 56 59 65 74 87 88 82 58 52 51 52 52 54 53 56 57 56 50 50 50 48
32 38 45 46 41 43 47 48 50 53 56 60 66 74 82 88 85 71 54 53 54 54 56 55 56 58 58 54 50 47 46 43
32 33 37 38 44 47 48 48 50 58 60 69 78 78 86 82 77 59 52 55 56 59 60 58 60 61 59 54 51 47 44 45
29 29 35 38 40 43 45 48 48 61 65 74 78 83 84 77 64 53 53 55 62 61 62 63 64 62 59 55 52 47 44 45
29 30 33 36 38 41 45 47 53 62 68 72 80 82 76 68 59 51 52 59 63 63 65 69 67 65 60 55 49 45 44 48

GFSFLT2_prec_cthk_240.txt.gz
RH
20 21 22 23 23 23 22 21 22 22 22 22 22 22 23 24 24 25 25 25 25 26 27 28 31 32 32 31 30 30 32 41
19 19 20 21 22 23 23 23 23 24 25 24 24 24 25 25 27 29 29 28 27 27 28 29 33 36 36 34 33 31 29 30
19 19 19 20 21 23 23 24 24 25 26 26 27 27 27 28 31 33 33 32 29 28 29 33 36 36 35 35 34 34 34 31
22 20 20 21 22 22 24 24 25 25 27 28 29 29 30 30 33 34 34 32 30 30 31 36 37 37 38 36 35 35 36 36
22 20 20 21 22 23 24 24 25 26 28 29 30 30 31 31 34 36 36 33 31 32 36 41 40 40 38 35 37 39 41 40
20 20 20 20 22 22 23 25 26 28 29 30 31 31 32 32 35 37 36 35 36 40 43 42 37 40 39 38 37 38 38 39
22 22 21 20 21 22 23 24 26 28 30 32 33 32 33 33 35 39 39 40 42 45 46 42 44 46 45 42 41 40 41 41
26 26 26 25 20 20 22 24 26 30 31 31 34 33 35 36 37 41 42 43 45 48 49 50 51 49 48 47 46 45 46 44
27 28 30 28 25 19 21 24 28 30 31 33 34 34 36 37 39 41 43 45 47 49 52 53 53 53 51 49 48 47 47 43
29 30 31 30 28 20 21 24 29 31 33 34 35 36 38 39 40 42 46 48 50 53 56 58 58 58 53 48 44 43 41 43
31 30 31 29 28 24 23 27 29 31 33 34 35 38 38 41 43 46 49 51 53 59 62 65 63 57 55 50 45 42 43 45
28 29 30 30 31 32 30 29 30 33 34 35 36 38 40 44 45 50 52 55 60 66 69 70 67 64 59 52 45 45 49 47
27 27 28 30 32 36 37 30 29 32 33 36 38 41 43 48 49 51 55 58 62 69 74 73 69 69 59 58 48 50 50 51
25 27 30 33 36 38 40 40 36 33 33 38 41 45 49 51 53 55 59 60 64 72 78 78 76 66 67 53 51 52 53 54
27 30 33 36 39 42 42 44 42 40 38 40 43 46 49 54 57 59 61 61 69 74 83 84 72 71 64 51 56 53 52 54
28 32 35 38 41 42 42 42 43 42 44 44 45 48 50 54 58 62 65 65 71 84 95 92 78 78 54 54 59 58 59 58
33 36 39 40 42 44 48 47 45 45 48 50 50 51 54 55 57 60 63 67 73 89 99 89 78 63 55 58 61 66 65 61
40 42 43 44 45 46 45 46 48 50 51 52 54 55 56 56 59 60 66 71 79 94 99 78 72 59 56 62 67 71 70 71
41 40 39 39 41 42 42 43 46 48 49 50 54 55 57 59 58 61 67 76 89 99 98 72 60 52 58 65 73 72 73 76
40 38 37 36 37 37 38 39 41 44 47 51 53 55 56 64 65 71 77 87 86 98 94 71 53 58 63 74 75 74 83 85

GFSFLT2_prec_cthk_243.txt.gz
RH
19 19 20 21 21 22 21 20 21 21 21 21 21 21 22 23 23 24 26 26 26 25 25 26 28 30 31 30 28 27 28 32
17 18 20 20 21 21 20 21 21 22 22 23 24 23 24 24 25 28 30 29 27 26 26 27 30 32 33 34 32 30 29 29
16 17 18 19 21 21 22 22 23 23 23 24 25 25 25 26 28 29 30 30 30 28 28 28 32 34 34 36 36 34 35 33
15 16 18 19 19 21 22 23 24 24 25 26 27 28 28 28 29 31 32 32 31 29 30 32 36 36 38 39 39 37 37 36
15 16 17 18 19 21 22 23 24 25 26 27 29 29 29 30 30 31 34 34 32 30 32 36 41 41 40 39 39 39 38 37
15 16 17 18 20 21 22 23 24 25 26 29 31 30 31 32 32 33 36 36 33 33 34 38 43 41 39 41 40 40 41 40
16 16 16 18 20 21 21 22 24 26 28 30 32 32 33 34 35 35 37 37 37 37 38 39 39 39 43 45 45 45 44 44
23 20 19 21 23 23 20 22 24 26 29 31 33 33 34 35 37 36 38 39 40 40 41 43 42 42 47 50 53 51 48 47
28 29 28 28 28 26 21 21 24 27 29 32 33 33 34 36 37 37 39 41 43 43 45 46 49 48 51 53 56 53 47 45
32 33 32 32 32 30 26 22 25 29 30 32 33 34 36 37 38 39 41 43 44 46 48 51 54 57 56 58 57 51 47 45
34 33 33 34 36 32 30 27 28 30 32 33 33 34 36 37 38 39 42 44 45 48 51 56 61 65 67 63 58 54 48 48
35 37 36 36 37 36 35 33 30 32 32 33 35 36 37 39 40 41 43 44 46 50 53 59 64 70 75 69 62 56 51 50
34 35 34 35 37 38 38 37 38 37 34 33 35 38 39 40 42 45 47 46 47 52 58 62 68 75 81 73 63 61 56 51
30 31 32 34 38 40 42 44 43 43 43 44 41 40 40 41 43 45 49 52 54 59 64 68 72 81 86 78 73 62 60 56
31 31 31 34 38 43 45 48 48 47 47 47 46 45 45 46 47 50 54 57 59 66 70 73 80 91 87 74 69 71 63 59
31 31 32 34 39 43 45 46 48 48 50 49 49 51 50 52 52 55 57 62 65 68 77 83 88 92 99 94 78 79 66 57
32 34 34 35 39 43 47 49 51 52 54 54 54 54 56 61 60 59 62 64 67 71 78 91 92 98 97 93 82 75 62 61
38 39 39 41 46 49 51 51 51 52 53 55 57 57 58 56 56 59 60 69 67 74 82 91 92 89 91 94 79 67 65 58
44 46 46 48 50 52 49 48 49 52 52 50 48 49 50 54 57 60 64 67 68 79 83 91 97 84 88 84 73 71 69 62
48 47 46 46 47 44 44 44 44 44 44 45 47 51 53 55 56 63 61 68 73 86 88 95 93 91 90 76 71 72 66 68

GFSFLT2_prec_cthk_246.txt.gz
RH
26 23 21 22 22 22 21 21 19 19 20 20 20 20 21 22 22 23 26 29 29 27 26 25 26 27 30 30 30 29 29 29
23 20 19 19 20 20 21 21 20 20 21 21 22 22 22 23 23 25 27 28 29 28 27 27 28 30 33 32 34 33 32 31
17 16 16 17 18 19 20 20 19 20 22 22 23 23 24 24 25 26 27 30 30 29 29 29 31 33 35 35 37 37 36 36
13 13 13 15 16 17 18 19 20 21 22 23 23 25 26 26 26 27 29 31 31 31 30 31 33 36 39 38 39 39 38 37
12 13 13 15 16 17 18 19 20 22 23 24 25 27 28 28 29 29 30 32 33 33 31 31 34 37 40 39 39 40 40 39
15 14 14 15 16 16 18 19 20 22 24 26 27 29 29 30 31 32 32 33 36 35 33 33 36 39 41 38 39 43 44 43
19 18 16 16 16 17 18 19 20 22 24 26 28 30 31 32 33 33 33 34 36 37 36 37 39 43 41 42 44 47 48 49
24 24 22 19 17 19 21 20 21 23 25 27 30 32 32 33 34 35 36 36 37 40 42 43 44 45 43 44 46 48 49 53
27 26 27 26 25 26 26 23 21 23 26 28 30 32 33 34 35 36 38 39 41 43 45 46 46 48 49 48 50 52 52 53
30 31 31 32 33 31 30 27 24 23 27 29 31 33 34 36 36 37 39 42 43 46 48 48 48 51 54 55 55 54 53 53
31 32 35 37 37 36 34 30 27 27 29 31 33 35 36 37 37 39 41 42 46 48 50 51 52 53 57 59 63 64 61 60
31 34 36 39 41 39 35 35 34 32 31 33 35 36 36 38 39 40 43 45 48 51 52 54 54 56 59 62 69 78 71 65
32 34 36 38 40 36 36 38 40 42 42 41 41 40 39 40 41 42 45 47 51 54 55 57 58 61 65 69 74 79 86 69
31 33 35 36 35 37 42 44 44 47 49 48 47 47 49 50 50 49 50 54 55 57 60 62 63 67 77 83 84 87 92 77
29 32 35 36 38 43 44 46 48 50 52 53 54 55 54 54 55 57 57 60 62 60 62 67 73 80 84 90 90 92 90 79
30 33 37 38 40 41 43 44 46 50 54 58 59 60 62 61 63 64 67 73 72 63 68 70 78 81 85 94 95 84 90 87
32 34 35 37 40 43 45 48 49 52 57 59 59 61 61 61 63 63 61 58 61 67 64 75 74 82 79 93 93 97 92 93
36 38 39 40 41 44 45 48 52 54 56 57 59 58 57 56 56 59 58 62 61 61 73 68 72 75 83 84 96 93 89 94
39 39 39 41 43 46 47 50 54 54 55 54 54 51 48 50 54 57 57 60 64 66 68 72 76 84 95 79 93 90 92 87
48 47 45 45 46 47 48 48 46 43 44 45 44 46 47 51 55 57 59 61 63 69 77 73 83 86 94 83 92 75 83 81

GFSFLT2_prec_cthk_249.txt.gz
RH
29 27 27 25 24 23 23 22 21 19 19 19 19 19 20 20 21 22 24 27 28 29 27 25 25 26 27 29 30 32 31 32
28 25 22 22 22 22 22 21 20 19 19 19 20 20 21 22 22 23 24 26 28 29 28 27 28 28 30 33 33 35 34 34
24 22 19 18 18 19 20 20 20 19 19 20 20 21 22 23 23 24 25 27 29 30 29 29 29 30 32 35 36 36 36 37
17 16 16 15 16 17 18 18 19 19 20 21 21 23 24 26 25 26 27 29 30 31 31 31 30 31 32 35 36 36 36 38
15 15 15 15 15 16 17 17 17 19 20 21 22 24 25 27 26 28 29 31 32 34 34 32 31 32 34 36 38 36 38 40
17 16 15 14 15 16 17 17 19 19 20 21 22 24 26 29 30 31 32 33 34 35 37 36 34 35 36 39 41 38 40 40
21 20 19 17 16 17 17 17 19 20 21 22 23 25 27 30 32 33 34 35 36 37 38 38 38 38 40 42 41 40 43 45
22 23 22 22 22 19 18 19 21 21 22 23 25 26 29 32 34 35 36 37 38 39 39 41 42 42 43 42 41 44 46 47
25 25 25 26 26 24 25 27 25 23 23 24 27 28 30 33 34 36 37 38 40 42 43 43 46 46 45 45 44 45 47 49
27 28 29 30 30 29 30 30 29 27 25 27 29 30 32 34 35 36 38 40 42 43 44 45 47 48 48 49 51 53 52 52
28 30 30 32 35 36 36 35 32 28 28 29 31 33 35 36 37 38 41 42 44 46 47 48 48 49 51 54 55 58 63 68
31 33 32 34 36 38 39 36 35 34 34 34 33 34 37 38 38 40 43 44 46 47 48 49 50 52 54 56 59 63 67 73
32 32 33 32 34 37 38 33 35 39 42 42 42 42 43 44 45 45 46 46 47 48 51 53 54 57 60 61 62 66 74 79
32 31 34 35 34 36 36 34 37 41 44 46 48 51 51 49 49 49 51 52 53 54 57 61 63 65 67 73 74 78 82 91
33 32 34 35 34 35 35 39 41 40 42 47 51 54 56 55 55 56 55 57 58 61 68 75 79 75 77 81 81 83 81 87
32 34 36 37 39 39 40 40 39 39 45 52 57 59 62 63 63 62 65 64 63 64 66 69 70 73 73 74 82 85 86 94
30 33 36 38 41 44 44 44 43 43 44 50 54 57 60 63 64 66 66 64 59 61 63 64 68 71 72 79 88 83 91 97
34 34 36 38 40 44 44 44 46 46 45 46 51 56 60 62 64 60 56 56 58 61 65 64 77 72 75 76 79 84 86 97
40 40 39 40 41 43 44 45 47 47 49 51 54 53 54 54 57 52 55 57 60 63 63 69 65 73 76 76 81 99 89 96
42 41 41 42 42 42 42 44 45 46 47 45 44 44 46 47 46 50 53 56 59 59 58 68 66 69 75 80 97 83 93 85

GFSFLT2_prec_cthk_252.txt.gz
RH
31 29 29 28 28 27 26 24 22 20 18 18 18 18 19 20 20 20 21 23 25 26 27 26 24 25 25 28 30 31 33 36
28 27 27 26 25 24 24 23 21 20 19 18 19 19 20 21 21 21 22 23 24 27 28 27 26 27 27 29 32 32 33 37
26 26 24 23 23 23 23 22 22 21 20 19 20 20 21 21 23 22 23 25 26 27 29 29 29 29 29 30 33 36 38 39
22 22 22 22 24 21 21 21 21 21 20 20 21 21 22 23 24 24 25 27 28 30 32 32 31 33 32 31 34 40 40 39
20 17 16 17 22 23 23 23 22 22 21 21 22 22 23 24 25 26 27 29 31 32 33 34 37 36 35 36 38 40 43 41
20 21 18 17 21 21 23 24 26 25 24 22 24 24 24 25 27 31 30 35 34 37 38 36 38 36 35 37 37 40 45 42
23 21 20 20 19 23 23 23 24 26 26 24 25 26 26 26 29 32 36 36 38 39 40 39 39 39 39 38 41 43 43 41
22 23 22 22 21 22 23 24 25 24 25 23 24 25 27 29 30 32 37 39 39 40 42 42 41 41 42 44 45 46 46 44
24 23 24 24 25 25 25 26 26 30 27 24 23 25 27 29 33 36 38 40 39 42 43 43 44 44 45 47 49 49 48 47
28 25 25 26 28 29 29 30 31 31 30 26 23 25 28 30 33 37 38 39 40 42 43 45 46 48 50 52 53 54 55 54
31 29 28 28 30 31 32 34 33 32 32 29 26 26 29 31 34 37 38 41 42 43 44 47 51 50 52 54 56 58 59 59
31 32 30 31 33 33 35 36 36 33 32 32 32 31 31 32 34 38 39 42 43 44 46 50 51 54 55 56 58 61 60 63
33 35 33 34 34 33 35 36 41 35 36 38 40 42 42 40 40 44 46 47 48 50 51 52 53 57 60 61 66 70 68 68
35 36 39 40 42 42 41 43 42 41 42 43 45 47 46 48 50 49 52 55 54 55 56 58 59 65 66 76 79 77 70 70
35 40 41 40 43 44 43 42 42 40 44 47 48 51 53 56 57 59 57 57 58 58 64 68 69 71 75 78 75 72 69 68
32 37 39 40 43 44 42 39 41 45 48 48 50 51 54 59 63 64 64 65 63 65 66 68 71 69 73 70 71 76 77 76
28 34 35 38 43 41 46 47 49 51 52 52 53 55 55 57 61 65 66 70 71 71 66 64 64 68 71 70 70 78 81 84
32 32 34 37 40 39 39 43 47 49 50 52 52 53 51 52 58 63 68 66 68 68 62 59 61 67 72 75 72 83 78 84
40 41 40 41 41 41 41 42 44 45 49 52 54 56 54 56 59 65 63 59 60 55 55 58 61 67 68 69 78 76 82 87
35 37 39 41 42 43 44 44 46 48 53 53 54 54 55 56 54 52 52 51 51 54 57 58 62 65 65 68 76 72 75 86

GFSFLT2_prec_cthk_258.txt.gz
RH
26 22 21 20 21 21 22 22 20 18 16 15 15 15 16 16 16 17 17 17 18 20 21 23 24 23 22 22 23 24 26 31
26 23 21 20 20 21 21 21 20 19 17 16 16 15 15 16 16 17 18 17 18 19 20 22 24 25 24 24 24 24 27 30
24 22 21 21 20 20 20 21 20 19 18 17 16 15 16 16 16 16 17 18 18 19 20 21 23 25 25 25 24 25 27 33
20 20 19 20 20 19 19 19 19 19 18 17 16 16 16 17 17 17 17 18 19 20 20 22 23 25 27 27 27 27 30 34
20 18 18 17 17 18 18 17 17 18 18 18 18 18 18 18 20 19 19 19 19 20 21 22 24 26 27 29 32 31 32 37
28 22 19 18 18 19 17 17 16 16 17 17 18 19 18 21 22 21 22 21 20 21 23 25 26 27 30 31 35 35 37 36
28 29 25 22 22 22 22 20 19 18 18 18 19 19 20 22 24 24 24 26 24 26 26 28 30 32 33 34 35 36 36 39
30 28 26 26 23 25 26 28 26 23 21 20 20 22 22 23 24 25 27 30 30 29 32 34 37 38 37 38 37 37 38 39
33 30 28 26 27 25 28 30 31 33 31 31 26 25 24 26 26 26 28 29 31 35 36 37 39 41 42 42 40 41 41 43
40 33 32 29 27 27 28 31 31 31 35 35 35 32 33 30 30 29 29 31 32 34 36 39 41 41 43 45 45 43 43 45
39 35 32 31 31 29 29 31 34 35 36 38 39 38 35 35 32 32 34 35 36 37 38 40 41 43 47 49 51 49 51 51
39 36 37 37 34 34 34 35 36 38 39 39 42 42 39 37 35 36 39 38 38 40 42 44 45 47 50 55 57 57 60 59
39 38 37 38 34 34 34 37 40 41 42 43 42 44 45 42 41 44 45 46 48 49 50 51 52 56 60 62 63 63 65 68
37 36 33 32 32 35 37 39 41 43 45 46 47 48 50 49 43 45 50 52 52 53 57 59 60 64 67 71 68 70 69 70
34 39 35 35 37 40 43 47 48 47 47 49 50 49 50 51 48 47 52 56 57 60 62 65 67 69 72 77 76 71 73 72
31 35 39 39 41 45 47 50 51 52 51 51 52 49 49 53 52 55 57 60 63 66 68 69 75 71 79 79 82 80 79 78
26 31 38 44 46 50 54 54 54 56 56 56 59 60 60 59 60 62 63 65 65 69 74 80 82 81 80 84 87 89 97 85
27 27 34 44 50 52 53 54 54 54 56 58 60 63 68 65 64 64 64 66 70 70 74 76 74 77 84 83 88 87 88 75
27 29 32 37 40 44 46 46 46 48 51 54 57 58 61 64 69 69 66 67 68 71 74 77 79 81 84 92 90 93 74 74
27 32 32 34 36 37 38 41 43 45 46 47 50 51 50 50 50 54 52 53 58 60 64 67 75 81 84 85 80 73 78 83

GFSFLT2_prec_cthk_264.txt.gz
RH
24 23 17 15 14 14 14 15 14 13 13 13 13 13 13 13 14 14 15 16 16 17 17 18 19 21 22 21 21 21 24 30
23 23 20 16 15 15 15 15 16 16 15 14 13 13 13 13 14 14 14 15 16 17 17 18 18 20 21 23 22 22 23 29
19 20 20 18 17 15 16 16 17 18 17 16 15 14 14 13 14 14 15 15 16 16 17 18 19 19 21 23 24 24 24 24
16 19 20 19 17 17 16 15 15 16 16 16 17 16 15 15 15 15 15 15 16 17 17 18 19 20 21 22 24 24 24 25
11 12 16 18 17 16 16 15 15 15 14 14 15 15 14 14 15 15 15 16 16 17 17 18 19 20 21 22 24 25 26 27
13 12 12 12 13 13 14 14 13 13 14 14 13 13 13 14 14 14 15 15 16 18 19 19 20 21 22 22 24 25 26 28
22 19 14 12 13 14 12 11 12 12 13 13 14 15 14 14 15 15 16 16 17 18 19 22 22 22 22 23 25 26 27 28
29 28 26 17 14 14 15 14 15 16 16 17 18 18 19 21 22 22 20 19 19 20 21 23 25 26 27 26 27 30 32 31
33 36 37 33 26 18 17 16 16 17 18 20 22 24 25 26 29 30 28 26 25 25 27 28 29 31 31 33 33 34 36 36
30 34 40 41 39 35 29 27 23 22 22 24 27 30 31 33 35 35 35 33 28 27 29 31 33 35 35 38 39 40 42 44
30 32 35 42 44 44 44 41 35 31 27 27 30 34 39 41 42 45 45 43 40 35 34 35 36 38 41 43 43 45 48 51
25 31 32 36 43 46 48 47 49 48 38 31 32 38 42 46 48 49 53 55 53 51 47 46 46 49 52 52 53 55 56 56
24 28 30 33 35 37 41 45 48 45 41 39 39 40 44 46 48 53 55 56 57 57 58 55 54 60 63 62 61 63 62 59
27 27 29 31 32 33 39 46 45 42 41 45 48 49 49 49 50 53 55 59 59 61 64 65 60 64 69 73 68 66 66 71
23 25 27 30 32 34 40 46 45 46 46 47 48 50 52 53 54 56 59 63 64 67 70 70 75 76 77 84 83 70 66 64
21 23 26 30 32 35 39 41 46 49 52 52 54 54 56 59 62 62 59 60 67 71 71 71 78 78 81 78 75 76 78 74
21 24 25 27 30 32 40 44 49 56 60 57 56 58 58 59 60 64 63 64 64 67 71 71 73 75 69 68 68 73 75 81
18 21 25 27 30 35 42 49 55 54 53 54 55 56 56 59 62 63 64 63 60 54 53 52 54 62 66 69 76 84 89 93
17 19 21 26 31 38 47 52 58 52 51 53 54 51 51 52 52 48 44 43 45 46 46 48 51 55 58 64 73 77 85 95
22 18 20 24 32 42 48 55 51 49 48 47 44 43 38 35 38 41 41 44 44 46 47 50 54 57 59 61 65 69 76 88